Flag Weather past 2 weeks in Tönisvorst, North Rhine-Westphalia, Germany

Now
43 °F

Passing clouds.


Feels Like: 40 °F
Forecast: 39 / 44 °F
Wind: 5 mph from Southeast

Location: Duesseldorf

Current Time: Nov 28, 2014 at 6:55:49 AM

Latest Report: Nov 28, 2014 at 6:00 AM


Visibility: 9 mi

Pressure: 29.78 "Hg

Humidity: 85%

Dew point: 38 °F

Location of TönisvorstLocation

Historic Weather in Tönisvorst — Graph

°F

Tönisvorst temperature yesterday

Maximum temperature yesterday: 47 °F (at 2:00 PM)
Minimum temperature yesterday: 43 °F (at 12:00 AM)
Average temperature yesterday: 44 °F

Past Weeks' High & Low Weather Summary

 TemperatureHumidityPressure
High58 °F (Nov 23, 2:00 PM)99% (Nov 20, 4:00 AM)30.36 "Hg (Nov 20, 4:00 AM)
Low30 °F (Nov 25, 5:00 AM)58% (Nov 24, 3:00 PM)29.53 "Hg (Nov 16, 5:00 PM)
Average46 °F84%29.96 "Hg
* Reported Nov 13 6:00 AM — Nov 28 6:00 AM, Tönisvorst, Weather by CustomWeather, © 2014

Note: Actual official high and low records may vary slightly from our data, if they occured in-between our weather recording intervals... More about our weather records

Advertising

Tönisvorst weather history for previous 24 hours

 ConditionsComfort  
Time TempWeatherWind HumidityBarometerVisibility
6:00 AM
Nov 28
43 °FPassing clouds.5 mph85%29.78 "Hg9 mi
5:00 AM43 °FPassing clouds.3 mph84%29.78 "Hg9 mi
3:00 AM43 °FOvercast.6 mph84%29.78 "Hg9 mi
2:00 AM44 °FOvercast.7 mph84%29.78 "Hg9 mi
1:00 AM43 °FOvercast.8 mph85%29.78 "Hg9 mi
12:00 AM43 °FPassing clouds.9 mph85%29.77 "Hg9 mi
11:00 PM
Nov 27
43 °FPassing clouds.8 mph85%29.76 "Hg9 mi
9:00 PM44 °FOvercast.5 mph88%29.76 "Hg9 mi
8:00 PM44 °FLight rain. Overcast.5 mph86%29.76 "Hg9 mi
7:00 PM44 °FLight rain. Overcast.6 mph86%29.76 "Hg8 mi
6:00 PM45 °FLight rain. Overcast.6 mph84%29.76 "Hg7 mi
5:00 PM45 °FLight rain. Overcast.3 mph82%29.76 "Hg8 mi
4:00 PM45 °FLight rain. Overcast.5 mph84%29.76 "Hg7 mi
3:00 PM46 °FLight rain. Overcast.6 mph80%29.76 "Hg8 mi
2:00 PM47 °FLight rain. Overcast.5 mph75%29.76 "Hg11 mi
1:00 PM47 °FOvercast.7 mph74%29.78 "Hg11 mi
12:00 PM46 °FOvercast.6 mph74%29.80 "Hg16 mi
11:00 AM45 °FOvercast.7 mph75%29.81 "Hg16 mi
9:00 AM44 °FOvercast.8 mph77%29.81 "Hg16 mi
8:00 AM44 °FOvercast.6 mph77%29.81 "Hg12 mi
7:00 AM43 °FOvercast.6 mph78%29.81 "Hg19 mi
6:00 AM44 °FOvercast.6 mph78%29.82 "Hg16 mi
Weather by CustomWeather, © 2014

See weather overviewHow to use our weather pages